Orbital Elements at Epoch 2459200.5 (2020-Dec-17.0) TDB
Reference: JPL 18 (heliocentric ecliptic J2000)
Element | Value | Uncertainty (1-sigma) | Units |
e | .2040679708280896 | 5.5465e-08 | |
a | 2.662160015170576 | 1.6941e-08 | au |
q | 2.11889842285504 | 1.5149e-07 | au |
i | 6.00165127061423 | 5.5767e-06 | deg |
node | 1.716307320977214 | 4.0073e-05 | deg |
peri | 202.133459688822 | 4.185e-05 | deg |
M | 353.2095055706813 | 1.5715e-05 | deg |
tp | 2459230.425992147448 (2021-Jan-15.92599215) | 6.9446e-05 | TDB |
period | 1586.535013793114 4.34 | 1.5145e-05 4.146e-08 | d yr |
n | .226909584011831 | 2.166e-09 | deg/d |
Q | 3.205421607486111 | 2.0399e-08 | au |
|
| | Orbit Determination Parameters
Additional Information
|